Location: Zagreb
(45.8000°N, 16.0000°E)
Time: 14:56:35
(UTC+02:00)

Transit 2A - Pass Details

Date: 14 August 2022
Orbit: 601 x 956 km, 66.7° (Epoch: 25 September)

Event Time Altitude Azimuth Distance (km) Brightness Sun altitude
Rises 14:04:54 0° 271° (W) 3,030 9.3 55.7°
Reaches altitude 10° 14:08:41 10° 301° (WNW) 2,049 8.4 55.4°
Maximum altitude 14:10:37 12° 326° (NNW) 1,865 8.0 55.2°
Drops below altitude 10° 14:12:30 10° 352° (N) 1,998 8.0 55.0°
Sets 14:16:06 0° 23° (NNE) 2,874 8.6 54.7°
